Weather History for PASX - December, 2011

Change the Weather History Date:

Saturday, December 17, 2011

  Actual Average Record
Temperature  
Mean Temperature 24 °F -  
Max Temperature 30 °F 22 °F 40 °F (1952)
Min Temperature 19 °F 9 °F -29 °F (2001)
Degree Days  
Heating Degree Days 40    
Moisture  
Dew Point 24 °F    
Average Humidity 91    
Maximum Humidity 100    
Minimum Humidity 86    
Precipitation  
Precipitation 0.00 in - - ()
Sea Level Pressure  
Sea Level Pressure 29.46 in    
Wind  
Wind Speed 2 mph (East)    
Max Wind Speed 8 mph    
Max Gust Speed -    
Visibility 10 miles    
Events      
Averages and records for this station are not official NWS values.
T = Trace of Precipitation, MM = Missing Value Source: NWS Daily Summary

Daily Weather History Graph

Daily Weather History Graph

Search for Another Location

Airport or City:

Trip Planner

Search our weather history database for the weather conditions in past years. The results will help you decide how hot, cold, wet, or windy it might be!

Date:

Astronomy

Dec. 17, 2011 Rise Set
Actual Time 10:07 AM AKST 3:52 PM AKST
Civil Twilight 9:08 AM AKST 4:51 PM AKST
Nautical Twilight 8:10 AM AKST 5:49 PM AKST
Astronomical Twilight 7:18 AM AKST 6:42 PM AKST
Moon 12:24 AM AKST (12/17) 12:31 PM AKST (12/17)
Length of Visible Light 7h 43m
Length of Day
5h 44m
Waning Gibbous, 52% of the Moon is Illuminated
Dec 17
Waning Gibbous
Dec 17
Last Quarter
Dec 24
New
Dec 31
First Quarter
Jan 8
Full

Hourly Weather History & Observations

Time (AKST) Temp. Windchill Dew Point Humidity Pressure Visibility Wind Dir Wind Speed Gust Speed Precip Events Conditions
12:16 AM 24.8 °F - 23.0 °F 93% 29.43 in - Calm Calm - N/A   Overcast
12:36 AM 24.8 °F - 21.2 °F 86% 29.44 in - Calm Calm - N/A   Overcast
12:56 AM 24.8 °F - 23.0 °F 93% 29.44 in - Calm Calm - N/A   Unknown
1:16 AM 24.8 °F - 21.2 °F 86% 29.44 in - Calm Calm - N/A   Unknown
1:36 AM 24.8 °F - 21.2 °F 86% 29.45 in - Calm Calm - N/A   Unknown
1:56 AM 23.0 °F - 19.4 °F 86% 29.44 in 10.0 mi Calm Calm - N/A   Mostly Cloudy
2:16 AM 19.4 °F - 17.6 °F 93% 29.44 in 10.0 mi Calm Calm - N/A   Scattered Clouds
2:36 AM 21.2 °F - 19.4 °F 93% 29.45 in 10.0 mi Calm Calm - N/A   Mostly Cloudy
2:56 AM 21.2 °F 16.4 °F 19.4 °F 93% 29.46 in 10.0 mi ENE 3.5 mph - N/A   Overcast
3:16 AM 23.0 °F 18.4 °F 21.2 °F 93% 29.46 in 10.0 mi ENE 3.5 mph - N/A   Overcast
3:36 AM 24.8 °F 19.1 °F 23.0 °F 93% 29.46 in 10.0 mi East 4.6 mph - N/A   Overcast
3:56 AM 24.8 °F 20.5 °F 21.2 °F 86% 29.46 in 10.0 mi East 3.5 mph - N/A   Overcast
4:16 AM 24.8 °F - 24.8 °F 100% 29.46 in 10.0 mi Calm Calm - N/A   Overcast
4:36 AM 24.8 °F 17.9 °F 21.2 °F 86% 29.46 in - East 5.8 mph - N/A   Mostly Cloudy
4:56 AM 26.6 °F 20.0 °F 24.8 °F 93% 29.46 in 10.0 mi ESE 5.8 mph - N/A   Overcast
5:16 AM 26.6 °F 19.1 °F 24.8 °F 93% 29.46 in 10.0 mi ESE 6.9 mph - N/A   Overcast
5:36 AM 28.4 °F - 26.6 °F 93% 29.47 in 10.0 mi Calm Calm - N/A   Overcast
5:56 AM 28.4 °F 24.6 °F 24.8 °F 86% 29.47 in 10.0 mi East 3.5 mph - N/A   Overcast
6:16 AM 28.4 °F 24.6 °F 24.8 °F 86% 29.47 in 10.0 mi ENE 3.5 mph - N/A   Overcast
6:36 AM 26.6 °F 20.0 °F 24.8 °F 93% 29.47 in 10.0 mi East 5.8 mph - N/A   Overcast
6:56 AM 26.6 °F 21.2 °F 24.8 °F 93% 29.47 in 10.0 mi ENE 4.6 mph - N/A   Overcast
7:16 AM 28.4 °F 23.3 °F 24.8 °F 86% 29.48 in 10.0 mi ENE 4.6 mph - N/A   Overcast
7:36 AM 26.6 °F 21.2 °F 24.8 °F 93% 29.48 in 10.0 mi East 4.6 mph - N/A   Overcast
7:56 AM 26.6 °F 22.6 °F 24.8 °F 93% 29.49 in 10.0 mi East 3.5 mph - N/A   Overcast
8:16 AM 26.6 °F 21.2 °F 23.0 °F 86% 29.48 in 10.0 mi East 4.6 mph - N/A   Overcast
8:36 AM 26.6 °F 20.0 °F 24.8 °F 93% 29.48 in 10.0 mi ESE 5.8 mph - N/A   Overcast
8:56 AM 26.6 °F 22.6 °F 23.0 °F 86% 29.48 in 10.0 mi East 3.5 mph - N/A   Overcast
9:16 AM 26.6 °F 21.2 °F 24.8 °F 93% 29.48 in 10.0 mi ENE 4.6 mph - N/A   Overcast
9:36 AM 26.6 °F 20.0 °F 24.8 °F 93% 29.48 in 10.0 mi ESE 5.8 mph - N/A   Overcast
9:56 AM 26.6 °F 19.1 °F 24.8 °F 93% 29.49 in 10.0 mi East 6.9 mph - N/A   Overcast
10:16 AM 26.6 °F 20.0 °F 24.8 °F 93% 29.49 in 10.0 mi East 5.8 mph - N/A   Overcast
10:36 AM 26.6 °F 22.6 °F 23.0 °F 86% 29.49 in 10.0 mi East 3.5 mph - N/A   Mostly Cloudy
10:56 AM 28.4 °F 24.6 °F 24.8 °F 86% 29.49 in 10.0 mi East 3.5 mph - N/A   Scattered Clouds
11:16 AM 26.6 °F 20.0 °F 24.8 °F 93% 29.50 in 10.0 mi ESE 5.8 mph - N/A   Mostly Cloudy
11:36 AM 26.6 °F 19.1 °F 24.8 °F 93% 29.50 in 10.0 mi East 6.9 mph - N/A   Overcast
11:56 AM 28.4 °F 23.3 °F 24.8 °F 86% 29.50 in 10.0 mi ESE 4.6 mph - N/A   Overcast
12:16 PM 28.4 °F 20.4 °F 24.8 °F 86% 29.50 in 10.0 mi East 8.1 mph - N/A   Mostly Cloudy
12:36 PM 30.2 °F 22.6 °F 26.6 °F 86% 29.49 in 8.0 mi East 8.1 mph - N/A   Overcast
12:56 PM 28.4 °F - 26.6 °F 93% 29.48 in 10.0 mi Calm Calm - N/A   Overcast
1:16 PM 28.4 °F 21.2 °F 26.6 °F 93% 29.48 in 10.0 mi East 6.9 mph - N/A   Overcast
1:36 PM 30.2 °F - 26.6 °F 86% 29.48 in 10.0 mi Calm Calm - N/A   Overcast
1:56 PM 28.4 °F - 24.8 °F 86% 29.47 in 10.0 mi Calm Calm - N/A   Overcast
2:16 PM 30.2 °F - 26.6 °F 86% 29.46 in 10.0 mi Calm Calm - N/A   Overcast
2:36 PM 28.4 °F - 26.6 °F 93% 29.46 in - Calm Calm - N/A   Overcast
2:56 PM 28.4 °F - 26.6 °F 93% 29.46 in - Calm Calm - N/A   Overcast
3:16 PM 28.4 °F - 26.6 °F 93% 29.45 in 10.0 mi Calm Calm - N/A   Overcast
3:36 PM 28.4 °F - 26.6 °F 93% 29.44 in 10.0 mi Calm Calm - N/A   Overcast
3:56 PM 28.4 °F 24.6 °F 26.6 °F 93% 29.44 in 10.0 mi ENE 3.5 mph - N/A   Overcast
4:16 PM 28.4 °F - 26.6 °F 93% 29.44 in 10.0 mi Calm Calm - N/A   Overcast
4:36 PM 28.4 °F - 26.6 °F 93% 29.44 in 10.0 mi Calm Calm - N/A   Overcast
4:56 PM 28.4 °F 24.6 °F 26.6 °F 93% 29.43 in 10.0 mi East 3.5 mph - N/A   Overcast
5:16 PM 28.4 °F 22.2 °F 28.4 °F 100% 29.41 in 10.0 mi East 5.8 mph - N/A   Overcast
5:36 PM 28.4 °F 24.6 °F 26.6 °F 93% 29.41 in 10.0 mi ENE 3.5 mph - N/A   Overcast
5:56 PM 30.2 °F 25.4 °F 28.4 °F 93% 29.41 in 10.0 mi ESE 4.6 mph - N/A   Overcast
6:16 PM 30.2 °F 22.6 °F 28.4 °F 93% 29.41 in 10.0 mi ESE 8.1 mph - N/A   Overcast
6:36 PM 32.0 °F 23.6 °F 26.6 °F 80% 29.40 in 10.0 mi ESE 10.4 mph - N/A   Overcast
6:56 PM 32.0 °F 24.2 °F 28.4 °F 87% 29.39 in 10.0 mi East 9.2 mph - N/A   Overcast
7:16 PM 32.0 °F 26.4 °F 26.6 °F 80% 29.38 in 10.0 mi ESE 5.8 mph - N/A   Mostly Cloudy
7:36 PM 33.8 °F 30.8 °F 28.4 °F 81% 29.38 in 10.0 mi ESE 3.5 mph - N/A   Mostly Cloudy
7:56 PM 33.8 °F 30.8 °F 28.4 °F 81% 29.38 in 10.0 mi East 3.5 mph - N/A   Mostly Cloudy
8:16 PM 32.0 °F 26.4 °F 28.4 °F 87% 29.37 in 10.0 mi East 5.8 mph - N/A   Mostly Cloudy
8:36 PM 32.0 °F 27.5 °F 28.4 °F 87% 29.37 in 10.0 mi East 4.6 mph - N/A   Partly Cloudy
8:56 PM 28.4 °F - 26.6 °F 93% 29.37 in 10.0 mi Calm Calm - N/A   Clear
9:16 PM 30.2 °F - 28.4 °F 93% 29.37 in - Calm Calm - N/A   Unknown
9:36 PM 28.4 °F 24.6 °F 26.6 °F 93% 29.37 in - East 3.5 mph - N/A   Unknown
9:56 PM 28.4 °F 23.3 °F 24.8 °F 86% 29.37 in 10.0 mi East 4.6 mph - N/A   Clear
10:16 PM 28.4 °F - 26.6 °F 93% 29.36 in 10.0 mi Calm Calm - N/A   Clear
10:36 PM 28.4 °F - 26.6 °F 93% 29.36 in 10.0 mi Calm Calm - N/A   Scattered Clouds
10:56 PM 28.4 °F 24.6 °F 26.6 °F 93% 29.36 in - ENE 3.5 mph - N/A   Overcast
11:16 PM 28.4 °F - 26.6 °F 93% 29.35 in - Calm Calm - N/A   Overcast
11:36 PM 28.4 °F - 26.6 °F 93% 29.34 in - Calm Calm - N/A   Unknown
11:56 PM 30.2 °F - 26.6 °F 86% 29.33 in 10.0 mi Calm Calm - N/A   Overcast